User: anonymous   Login
Location: Carbonear
(47.7333°N, 53.2500°W)
Time: 12:18:11
(UTC+00:00)
Language:

XW-2B - Orbit

View from above orbital plane
View from above orbital plane
View from above satellite
View from above satellite

Ground track
Ground track

The orbit data is extracted from the following two-line orbital elements,

1 40911U 15049N   22338.15679832  .00006704  00000-0  29699-3 0  9998
2 40911  97.4939 341.1555 0013928 117.6811 306.9142 15.21877767398646
Epoch (UTC): 04 December 2022 03:45:47
Eccentricity: 0.0013928
inclination: 97.4939°
perigee height: 490 km
apogee height: 510 km
right ascension of ascending node: 341.1555°
argument of perigee: 117.6811°
revolutions per day: 15.21877767
mean anomaly at epoch: 306.9142°
orbit number at epoch: 39864

The dashed part of the orbit path shows where the satellite is in the earth's shadow,  

DLR